Home > Weather > Lemgo > Past weeks

Flag for Germany Weather for the Past 2 Weeks in Lemgo, North Rhine-Westphalia, Germany

Now
52 °F

Cool.


Feels Like: 49 °F
Forecast: 35 / 58 °F
Wind: 9 mph from North

Location: Bueckeburg

Current Time: May 3, 2016 at 8:59:30 PM

Latest Report: May 3, 2016 at 8:20 PM


Visibility: N/A

Pressure: 30.24 "Hg

Humidity: 50%

Dew Point: 34 °F

Location of LemgoLocation

Historic Weather in Lemgo — Graph

°F

Lemgo Temperature Yesterday

Maximum temperature yesterday: 68 °F (at 4:20 PM)
Minimum temperature yesterday: 37 °F (at 5:20 AM)
Average temperature yesterday: 54 °F

High & Low Weather Summary for the Past Weeks

 TemperatureHumidityPressure
High68 °F (May 2, 4:20 PM)100% (Apr 21, 7:20 AM)30.45 "Hg (Apr 21, 7:20 AM)
Low32 °F (Apr 21, 6:20 AM)35% (May 2, 5:20 PM)29.39 "Hg (Apr 26, 1:20 PM)
Average45 °F74%29.99 "Hg
* Reported Apr 18 7:20 PM — May 3 7:20 PM, Lemgo, Weather by CustomWeather, © 2016

Note: Actual official high and low records may vary slightly from our data, if they occured in-between our weather recording intervals... More about our weather records

Advertising

Lemgo Weather History for the Previous 24 Hours

Scroll right to see more
 ConditionsComfort  
Time TempWeatherWind HumidityBarometerVisibility
7:20 PM
Tue, May 3
55 °FPassing clouds.13 mph44%30.21 "HgN/A
7:00 PM55 °FPassing clouds.13 mph47%30.18 "HgN/A
6:20 PM55 °FPassing clouds.9 mph59%30.18 "HgN/A
5:20 PM57 °FScattered clouds.13 mph48%30.18 "HgN/A
4:20 PM54 °FScattered clouds.12 mph54%30.18 "HgN/A
3:20 PM55 °FPartly sunny.7 mph63%30.15 "HgN/A
2:20 PM54 °FSprinkles. Broken clouds.18 mph58%30.15 "HgN/A
1:20 PM52 °FBroken clouds.7 mph77%30.15 "HgN/A
12:20 PM52 °FBroken clouds.10 mph82%30.12 "HgN/A
11:20 AM48 °FPartly sunny.6 mph94%30.12 "HgN/A
10:20 AM48 °FLight rain. Partly sunny.8 mph87%30.09 "HgN/A
9:20 AM50 °FPartly sunny.9 mph82%30.07 "HgN/A
8:20 AM54 °FLight rain. Broken clouds.7 mph77%30.04 "HgN/A
7:20 AM52 °FCloudy.5 mph77%30.04 "HgN/A
6:20 AM48 °FPassing clouds.7 mph82%30.04 "HgN/A
5:20 AM48 °FPassing clouds.5 mph82%30.04 "HgN/A
4:20 AM52 °FPartly cloudy.6 mph67%30.04 "HgN/A
3:20 AM54 °FPartly cloudy.6 mph63%30.04 "HgN/A
2:20 AM54 °FPassing clouds.8 mph63%30.04 "HgN/A
1:20 AM54 °FPassing clouds.6 mph63%30.04 "HgN/A
12:20 AM54 °FPassing clouds.7 mph63%30.07 "HgN/A
11:20 PM
Mon, May 2
55 °FPassing clouds.5 mph59%30.07 "HgN/A
10:20 PM52 °FPassing clouds.5 mph72%30.07 "HgN/A
9:20 PM55 °FPartly sunny.5 mph67%30.07 "HgN/A
8:20 PM63 °FPartly sunny.2 mph45%30.07 "HgN/A
Weather by CustomWeather, © 2016

See weather overviewHow to use our weather pages